Lowell, ID

7:23 AM PDT on March 30, 2017 (GMT -0700)
Lowell

Weather History for KP69 - January, 2013

Change the Weather History Date:

Wednesday, January 23, 2013

  Actual Average Record
Temperature  
Mean Temperature 30 °F -  
Max Temperature 36 °F 38 °F 53 °F (2005)
Min Temperature 24 °F 29 °F 10 °F (2008)
Degree Days  
Heating Degree Days 36    
Moisture  
Dew Point 26 °F    
Average Humidity 86    
Maximum Humidity 92    
Minimum Humidity 72    
Precipitation  
Precipitation 0.03 in - - ()
Sea Level Pressure  
Sea Level Pressure 30.20 in    
Wind  
Wind Speed 2 mph (NNW)    
Max Wind Speed 7 mph    
Max Gust Speed -    
Averages and records for this station are not official NWS values.
T = Trace of Precipitation, MM = Missing Value Source: NWS Daily Summary

Daily Weather History Graph

Daily Weather History Graph

Search for Another Location

Airport or City:

Trip Planner

Search our weather history database for the weather conditions in past years. The results will help you decide how hot, cold, wet, or windy it might be!

Date:

Astronomy

Jan. 23, 2013 Rise Set
Actual Time 8:12 AM MST 5:35 PM MST
Civil Twilight 7:40 AM MST 6:07 PM MST
Nautical Twilight 7:03 AM MST 6:44 PM MST
Astronomical Twilight 6:28 AM MST 7:19 PM MST
Moon 2:46 PM MST (1/23) 5:30 AM MST (1/23)
Length of Visible Light 10h 27m
Length of Day
9h 22m
Waxing Gibbous, 89% of the Moon is Illuminated
Jan 23
Waxing Gibbous
Jan 26
Full
Feb 3
Last Quarter
Feb 10
New
Feb 17
First Quarter

Hourly Weather History & Observations

Time (MST) Temp. Windchill Dew Point Humidity Pressure Visibility Wind Dir Wind Speed Gust Speed Precip Events Conditions
12:52 AM 25.0 °F - 23.0 °F 92% 30.30 in - Calm Calm - N/A   Unknown
1:52 AM 25.0 °F - 21.9 °F 88% 30.29 in - Calm Calm - N/A   Unknown
2:52 AM 25.0 °F - 21.9 °F 88% 30.30 in - Calm Calm - N/A   Unknown
3:52 AM 25.0 °F - 21.9 °F 88% 30.30 in - Calm Calm - N/A   Unknown
4:52 AM 25.0 °F 19.3 °F 21.9 °F 88% 30.28 in - NW 4.6 mph - N/A   Unknown
5:52 AM 25.0 °F 19.3 °F 21.0 °F 85% 30.28 in - WNW 4.6 mph - N/A   Unknown
6:52 AM 25.0 °F - 21.0 °F 85% 30.28 in - Calm Calm - N/A   Unknown
7:52 AM 24.1 °F 19.7 °F 21.0 °F 88% 30.26 in - North 3.5 mph - N/A   Unknown
8:52 AM 25.0 °F 17.1 °F 21.0 °F 85% 30.25 in - NW 6.9 mph - N/A   Unknown
9:52 AM 26.1 °F 20.5 °F 21.9 °F 84% 30.24 in - NW 4.6 mph - N/A   Unknown
10:52 AM 28.9 °F 25.2 °F 23.0 °F 78% 30.23 in - North 3.5 mph - N/A   Unknown
11:52 AM 30.0 °F 25.2 °F 25.0 °F 82% 30.21 in - North 4.6 mph - N/A   Unknown
12:52 PM 34.0 °F 31.0 °F 26.1 °F 73% 30.15 in - Variable 3.5 mph - N/A   Unknown
1:52 PM 35.1 °F 32.2 °F 27.0 °F 72% 30.14 in - North 3.5 mph - N/A   Unknown
2:52 PM 35.1 °F - 28.9 °F 78% 30.10 in - Calm Calm - N/A   Unknown
3:52 PM 34.0 °F - 30.0 °F 85% 30.12 in - Calm Calm - N/A   Unknown
4:52 PM 33.1 °F 30.0 °F 30.0 °F 89% 30.15 in - North 3.5 mph - N/A   Unknown
5:52 PM 33.1 °F - 30.9 °F 92% 30.14 in - Calm Calm - 0.01 in   Unknown
6:52 PM 33.1 °F - 30.9 °F 92% 30.12 in - Calm Calm - N/A   Unknown
7:52 PM 33.1 °F 27.7 °F 30.9 °F 92% 30.10 in - NNW 5.8 mph - N/A   Unknown
8:52 PM 33.1 °F 28.7 °F 30.9 °F 92% 30.11 in - NNW 4.6 mph - N/A   Unknown
9:52 PM 33.1 °F - 30.9 °F 92% 30.12 in - Calm Calm - N/A   Unknown
10:52 PM 33.1 °F - 30.9 °F 92% 30.16 in - Calm Calm - N/A   Unknown
11:52 PM 33.1 °F - 30.9 °F 92% 30.16 in - Calm Calm - 0.02 in   Unknown